Regional Weather Roundup
Issued by NWS

Home | Current Version | Previous Version | Text Only | Print | Product List | Glossary Off
Versions: 1 2 3 4 5 6 7 8 9 10 11 12 13 14 15 16 17 18 19 20 21 22 23 24 25 26 27 28 29 30 31 32 33 34 35 36 37 38 39 40 41 42 43 44 45 46 47 48 49 50

000
ASUS43 KLOT 252121
RWRIL

ILLINOIS REGIONAL WEATHER ROUNDUP
NATIONAL WEATHER SERVICE CHICAGO/ROMEOVILLE IL
400 PM CDT SAT APR 25 2015

NOTE: "FAIR" INDICATES FEW OR NO CLOUDS BELOW 12,000 FEET WITH NO
SIGNIFICANT WEATHER AND/OR OBSTRUCTIONS TO VISIBILITY.

* THESE STATIONS ARE NOT UNDER NWS QUALITY CONTROL. THEY ALSO MAY NOT
  REPORT WEATHER SUCH AS PRECIPITATION OR FOG.

ILZ001-002-007-009-015-016-024-252200-
NORTHWEST ILLINOIS

CITY           SKY/WX    TMP DP  RH WIND       PRES   REMARKS
MOLINE         CLOUDY    49  43  80 E15G25    29.70R
STERLING*      CLOUDY    48  41  76 E17G23    29.73R
SAVANNA*       CLOUDY    51  40  66 E18G25    29.73R
$$

ILZ003-004-008-010-011-017-018-252200-
NORTH CENTRAL ILLINOIS

CITY           SKY/WX    TMP DP  RH WIND       PRES   REMARKS
ROCKFORD       CLOUDY    50  39  66 NE23G30   29.75S
FREEPORT*      CLOUDY    48  39  70 NE18G26   29.76R
ROCHELLE*      CLOUDY    47  42  83 NE25G33   29.72R
DE KALB*       CLOUDY    45  40  83 E20G25    29.72R
PERU*          CLOUDY    48  44  85 E18G24    29.69R
$$

ILZ005-006-012>014-019>023-252200-
NORTHEAST ILLINOIS

CITY           SKY/WX    TMP DP  RH WIND       PRES   REMARKS
CHICAGO-OHARE  CLOUDY    47  40  76 E18G25    29.72S
CHICAGO-MIDWAY PTSUNNY   48  43  82 NE24G32   29.72S
AURORA         PTSUNNY   48  40  73 E21G28    29.71R
LANSING*       CLOUDY    46  41  84 NE15      29.71R
JOLIET*        LGT RAIN  48  44  88 NE16G23   29.70R
WAUKEGAN       CLOUDY    42  35  76 N16G24    29.77F
DUPAGE AIRPORT CLOUDY    47  40  76 E21G30    29.70F
KANKAKEE*      CLOUDY    48  43  84 E16       29.67S
WHEELING       CLOUDY    45  39  79 NE13      29.76S
MORRIS*        LGT RAIN  47  43  86 E17G24    29.67R
ROMEOVILLE*    CLOUDY    46  42  86 E22       29.71R
NORTHERLY ISL    N/A     44  41  89 NE17        N/A
$$

LMZ740>746-252200-
SOUTHERN LAKE MICHIGAN

STATION/POSITION SKY/WX   TEMP    WIND        PRES    VSBY  WAVE
                          AIR SEA DIR/SP/G                  HT/PER
                          (F)     (DEG/KT/KT) (MB)    (MI)  (FT/S)
HARRISON CRIB              41      50/ 17/ 19   N/A
BURNHAM HARBOR             44      40/ 16/ 18   N/A
CALUMET HARBOR             44      40/ 16/ 20   N/A
BURNS HARBOR               45      70/ 17/ 21 1007.5F
MICHIGAN CITY              45      50/ 20/ 24   N/A
MICHIGAN CITY 6N           45 45   80/ 17/ 21   N/A           2/ 3
$$

ILZ025>027-034>036-040-047-049-050-058-095>099-252200-
WEST-CENTRAL ILLINOIS

CITY           SKY/WX    TMP DP  RH WIND       PRES   REMARKS
QUINCY         CLOUDY    55  50  83 NE17      29.56R
GALESBURG*     CLOUDY    46  44  92 NE15G22   29.66R
MACOMB*        CLOUDY    49  46  91 NE20      29.67R
JACKSONVILLE*  CLOUDY    58  52  83 NE9       29.57R
PITTSFIELD*    DRIZZLE   56  54  92 NE9       29.56S
$$

ILZ028>032-037-038-041>044-048-051>054-059>061-252200-
CENTRAL ILLINOIS

CITY           SKY/WX    TMP DP  RH WIND       PRES   REMARKS
PONTIAC        CLOUDY    48  46  90 E22       29.66R
BLOOMINGTON    CLOUDY    48  46  93 E21       29.62R
DECATUR        CLOUDY    54  49  83 E17       29.55F
PEORIA         CLOUDY    50  44  80 NE16      29.64R
LACON*         CLOUDY    46  43  87 NE10      29.66R
LINCOLN*       CLOUDY    54  49  83 NE15      29.58R
SPRINGFIELD    CLOUDY    57  50  77 E8        29.57R
TAYLORVILLE    CLOUDY    52  50  93 E9G21     29.54R
$$

ILZ033-039-045-046-055>057-062-063-252200-
EAST-CENTRAL ILLINOIS

CITY           SKY/WX    TMP DP  RH WIND       PRES   REMARKS
CHAMPAIGN      CLOUDY    51  47  86 E22       29.57F
DANVILLE*      CLOUDY    47  44  88 E14G21    29.58R
RANTOUL*       CLOUDY    51  47  85 E15G24    29.60S
MATTOON        LGT RAIN  51  49  92 E13       29.54F
PARIS*         CLOUDY    50  48  94 E9        29.59F
$$

ILZ079-100>102-252200-
SOUTHWEST ILLINOIS

CITY           SKY/WX    TMP DP  RH WIND       PRES   REMARKS
ALTON          LGT RAIN  57  55  94 N14       29.53R
BELLEVILLE     LGT RAIN  63  63 100 NE10      29.49R
CAHOKIA*       LGT RAIN  65  61  87 CALM      29.49R FOG
SPARTA*        CLOUDY    65  59  81 N10       29.49R
$$

ILZ064>066-069>071-074>076-080>082-084>086-088>090-092>094-252200-
SOUTH-CENTRAL ILLINOIS

CITY           SKY/WX    TMP DP  RH WIND       PRES   REMARKS
CARBONDALE     CLOUDY    68  58  70 MISG      29.46R
CAIRO*         SUNNY     77  63  61 S18G25    29.46F
EFFINGHAM*     LGT RAIN  53  51  92 NE8       29.54F
MT. VERNON     PTSUNNY   64  59  82 NE6       29.48F
CENTRALIA*     CLOUDY    66  59  77 CALM      29.49R
SALEM*         LGT RAIN  59  56  89 NE10      29.51R
METROPOLIS*    MOSUNNY   77  62  59 S13G20    29.45F
$$

ILZ067-068-072-073-078-083-087-091-252200-
SOUTHEAST ILLINOIS

CITY           SKY/WX    TMP DP  RH WIND       PRES   REMARKS
LAWRENCEVILLE  CLOUDY    54  53  97 NE14      29.55S FOG
FLORA*         CLOUDY    55  54  95 NE10      29.52R
FAIRFIELD*     RAIN      64  60  85 N3        29.48R
HARRISBURG*    PTSUNNY   73  60  61 S20       29.39F
ROBINSON*      CLOUDY    53  52  97 E15       29.56F FOG
CARMI*         CLOUDY    69  54  58 N9        29.45F
$$

ABBREVIATIONS USED IN REMARKS
   TC - TEMPERATURE IN CELSIUS
  WCI - WIND CHILL INDEX
   HX - HEAT INDEX
  VSB - VISIBILITY
$$



USA.gov is the U.S. government's official web portal to all federal, state and local government web resources and services.